nctcog logo
 
weather label
 

NCTCOG Roof-top Weather Statistics


image description hereStatistical data from the Weather Station atop the Centerpoint II Office Complex. Data is captured hourly and summarized by day.

Current Weather at NCTCOG

 Temperature: 80.0
 Humidity: 67.0%
 Wind: 6.9 mph Southeast
 Gust:
 Pressure: 29.88 inches
 Rainfall Today:
 Updated: 9/26/2017
 At: 3:15:07 AM

Page: 1 2 3 4 5 6 7 8 9 10 11 12 13 14 15 16 17 18 19
Daily Weather Statistics at NCTCOG
Date Month Day Min Temp Max Temp Pressure Dew Point Rainfall Max Wind
20170926 September Tuesday 80 82 29.87  68   in. mph
20170925 September Monday 72 92 29.86  71.1   in. mph
20170924 September Sunday 74 92 29.87  71.1   in. mph
 
20170923 September Saturday 74 95 29.9  71.1   in. mph
20170922 September Friday 76 94 29.92  73   in. mph
20170921 September Thursday 80 96 29.89  73.9   in. mph
20170920 September Wednesday 84 99 29.84  72   in. mph
20170919 September Tuesday 79 80 29.89  72   in. mph
20170918 September Monday 74 94 29.96  72   in. mph
20170917 September Sunday 75 94 29.99  72   in. mph
 
20170916 September Saturday 75 95 29.93  72   in. mph
20170915 September Friday 74 94 29.86  70   in. mph
20170914 September Thursday 67 97 29.8  66.9   in. mph
20170913 September Wednesday 62 90 29.81  59   in. mph
20170912 September Tuesday 62 85 29.88  59   in. mph
20170911 September Monday 71 85 29.98  59   in. mph
 
20170909 September Saturday 66 86 30.15  59   in. mph
20170908 September Friday 63 85 30.13  55.9   in. mph
20170907 September Thursday 61 86 30.12  52   in. mph
20170906 September Wednesday 65 84 30.12  55.9   in. mph
20170905 September Tuesday 73 90 30  68   in. mph
20170904 September Monday 74 95 29.99  68   in. mph
 
 CONTACT US | SITE MAP | LEGAL | SYSTEM REQUIREMENTS
 North Central Texas Council of Governments | 616 Six Flags Drive P.O. Box 5888 Arlington, TX 76005-5888
 Main Operator: (817) 640-3300 | Fax: (817) 640-7806